Starlink 36089

operational
NORAD ID: 66947 Int'l Des: 2025-286 Owner: SPXS Country: US Constellation: starlink
LEOCIRCULAR

Über Starlink 36089

Beschreibung wird geladen...

Live-Position

3D-Globus wird geladen...

Nächste Überflüge

Höhenverlauf

Altitude vs Time

uPlot chart will show altitude changes over time

Zweizeiliger Elementsatz

1 66947U 25286Y 25347.58336806 -.01297534 51762-3 -28898-2 0 9999
2 66947 53.1565 46.3799 0000989 58.2349 254.8364 15.97241517 2123
Epoch: 13. Dez. 2025 • Age: 18 hours

Aktueller Status

Höhe 306.2 km
Geschwindigkeit 7.72 km/s
Subsatellitenpunkt -52.85°S, 101.43°E
Startdatum 7. Dez. 2025
Alter 6 days
Typ internet

Technische Details

Klassifizierung Payload
Masse 575.00 kg
Trockenmasse 530.00 kg
Gesamtmasse 575.00 kg
Länge 0.30 m
Durchmesser 4.10 m
Spannweite 29.00 m
Form Box + pan
Hersteller SPXS
Bus-Typ Starlink V2MO
Phasenstatus In Orbit
Besitzer/Staat SPXS/US

Große Konstellationen

Loading constellations...